This is the latest recevied weather packets stored in our database for station/object SQ5LTL-2. If no packets are shown the sender has not sent any weather packets the latest 1 day(s).
| Time | Temp. | Humidity | Pressure | Rain* | Wind** | Luminosity | Snow |
|---|---|---|---|---|---|---|---|
| 1836274691 | 13.33° C | 99% | 1025.9 hPa | 0 mm | 0.89 m/s, 208° | 0 W/m² | - |
| 1836274544 | 13.33° C | 99% | 1025.9 hPa | 0 mm | 0.45 m/s, 162° | 0 W/m² | - |
| 1836274390 | 12.78° C | 99% | 1025.9 hPa | 0 mm | 0.45 m/s, 216° | 0 W/m² | - |
| 1836274242 | 13.33° C | 99% | 1025.9 hPa | 0 mm | 0.89 m/s, 210° | 0 W/m² | - |
| 1836274109 | 13.33° C | 99% | 1025.8 hPa | 0 mm | 0 m/s | 0 W/m² | - |
| 1778034933 | 12.78° C | 62% | 1007.6 hPa | 0 mm | 0.45 m/s, 166° | 0 W/m² | - |
| 1778034635 | 12.78° C | 62% | 1007.6 hPa | 0 mm | 0.45 m/s, 186° | 0 W/m² | - |
| 1778034331 | 12.78° C | 63% | 1007.6 hPa | 0 mm | 0.89 m/s, 174° | 0 W/m² | - |
| 1778034030 | 12.78° C | 64% | 1007.7 hPa | 0 mm | 0.45 m/s, 176° | 0 W/m² | - |
| 1778033728 | 12.78° C | 62% | 1007.7 hPa | 0 mm | 0.45 m/s, 182° | 0 W/m² | - |
| 1778033427 | 12.78° C | 61% | 1007.6 hPa | 0 mm | 0 m/s | 0 W/m² | - |
| 1778033125 | 12.78° C | 62% | 1007.7 hPa | 0 mm | 0.45 m/s, 186° | 0 W/m² | - |
| 1778032823 | 13.33° C | 61% | 1007.8 hPa | 0 mm | 0 m/s | 0 W/m² | - |
| 1778032523 | 13.33° C | 60% | 1007.8 hPa | 0 mm | 0.45 m/s, 213° | 0 W/m² | - |
| 1778032222 | 13.33° C | 60% | 1007.8 hPa | 0 mm | 0.45 m/s, 219° | 0 W/m² | - |
| 1778031919 | 13.33° C | 60% | 1007.8 hPa | 0 mm | 0.45 m/s, 197° | 0 W/m² | - |
| 1778031619 | 13.33° C | 60% | 1007.9 hPa | 0 mm | 0.45 m/s, 197° | 0 W/m² | - |
| 1778031316 | 13.33° C | 60% | 1007.8 hPa | 0 mm | 0.45 m/s, 210° | 0 W/m² | - |
| 1778031034 | 13.33° C | 60% | 1007.8 hPa | 0 mm | 0 m/s | 0 W/m² | - |
| 1778030733 | 13.89° C | 60% | 1007.8 hPa | 0 mm | 0.45 m/s, 216° | 0 W/m² | - |
| 1778030431 | 13.33° C | 60% | 1007.7 hPa | 0 mm | 0.45 m/s, 209° | 0 W/m² | - |
| 1778030130 | 13.33° C | 61% | 1007.8 hPa | 0 mm | 0.45 m/s, 198° | 0 W/m² | - |
| 1778029829 | 13.33° C | 60% | 1007.7 hPa | 0 mm | 0.45 m/s, 201° | 0 W/m² | - |
| 1778029528 | 13.33° C | 61% | 1007.7 hPa | 0 mm | 0.45 m/s, 216° | 0 W/m² | - |
| 1778029226 | 13.89° C | 60% | 1007.7 hPa | 0 mm | 0.45 m/s, 200° | 0 W/m² | - |
* Rain latest hour (hover to see other rain measurements)
** Current wind speed in m/s (hover to see current wind gust speed)